Location: Arboucave
(43.6130°N, 0.4343°W)
Time: 06:07:10
(UTC+00:00)

BlueWalker 3 - Visible Passes

Search period start: 20 January 2026 00:00
Search period end: 30 January 2026 00:00
Orbit: 451 x 463 km, 53.2° (Epoch: 19 January)

Date Brightness Start Highest point End Pass type
(mag) Time Alt. Az. Time Alt. Az. Time Alt. Az.
20 Jan 3.6 17:55:59 10° S 17:58:17 16° SE 17:59:36 14° ESE visible
20 Jan 4.0 19:31:52 10° WSW 19:33:22 23° WSW 19:33:22 23° WSW visible
21 Jan 1.8 18:56:26 10° SW 18:59:45 76° WSW 18:59:45 76° WSW visible
22 Jan 1.7 18:21:05 10° SW 18:24:37 72° SE 18:26:02 33° ENE visible
22 Jan 5.0 19:59:21 10° WNW 19:59:47 12° WNW 19:59:47 12° WNW visible
23 Jan 2.0 17:45:44 10° SW 17:49:14 54° SE 17:52:15 13° ENE visible
23 Jan 3.7 19:23:42 10° W 19:26:00 26° NW 19:26:00 26° NW visible
24 Jan 2.9 18:48:05 10° W 18:51:23 34° NNW 18:52:08 30° N visible
25 Jan 2.7 18:12:28 10° W 18:15:52 40° NNW 18:18:12 18° NE visible
25 Jan 4.8 19:51:31 10° NW 19:51:56 12° NW 19:51:56 12° NW visible
26 Jan 2.4 17:36:53 10° WSW 17:40:22 50° NNW 17:43:51 10° NE visible
26 Jan 3.9 19:15:50 10° WNW 19:17:58 18° NNW 19:17:58 18° NNW visible
27 Jan 3.6 18:40:08 10° WNW 18:42:53 20° NNW 18:43:56 18° NNE visible
28 Jan 3.5 18:04:24 10° WNW 18:07:16 22° NNW 18:09:53 11° NE visible
28 Jan 4.7 19:43:11 10° NW 19:43:37 12° NW 19:43:37 12° NW visible
29 Jan 3.9 19:07:36 10° NW 19:09:32 17° N 19:09:32 17° N visible
